Location: Central Coast
(33.3208°S, 151.2336°E)
Time: 15:34:36
(UTC+11:00)

N. Korean satellite - Pass Details

Date: 10 October 2017
Orbit: 461 x 513 km, 97.2° (Epoch: 11 December)

Event Time Altitude Azimuth Distance (km) Brightness Sun altitude
Rises 19:54:27 0° 174° (S) 2,666 10.5 -11.1°
Reaches altitude 10° 19:56:36 10° 178° (S) 1,770 9.6 -11.6°
Maximum altitude 20:00:21 57° 256° (WSW) 620 7.5 -12.3°
Drops below altitude 10° 20:04:02 10° 335° (NNW) 1,735 9.5 -13.0°
Sets 20:06:07 0° 339° (NNW) 2,606 10.3 -13.5°
